Weather History for Clarksburg, WV

Change the Weather History Date:

Sunday, November 25, 2012

  Actual Average Record
Temperature  
Mean Temperature 36 °F -  
Max Temperature 44 °F 48 °F 73 °F (1931)
Min Temperature 28 °F 30 °F 7 °F (1950)
Degree Days  
Heating Degree Days 29    
Moisture  
Dew Point 17 °F    
Average Humidity 52    
Maximum Humidity 66    
Minimum Humidity 31    
Precipitation  
Precipitation 0.00 in - - ()
Sea Level Pressure  
Sea Level Pressure 30.02 in    
Wind  
Wind Speed 9 mph (SW)    
Max Wind Speed 15 mph    
Max Gust Speed 22 mph    
Visibility 10 miles    
Events      
Averages and records for this station are not official NWS values.
T = Trace of Precipitation, MM = Missing Value Source: NWS Daily Summary

Daily Weather History Graph

Daily Weather History Graph

Search for Another Location

Airport:

Trip Planner

Search our weather history database for the weather conditions in past years. The results will help you decide how hot, cold, wet, or windy it might be!

Date:

Astronomy

Nov. 25, 2012 Rise Set
Actual Time 7:15 AM EST 4:59 PM EST
Civil Twilight 6:46 AM EST 5:29 PM EST
Nautical Twilight 6:13 AM EST 6:02 PM EST
Astronomical Twilight 5:41 AM EST 6:34 PM EST
Moon 3:15 PM EST (11/25) 4:29 AM EST (11/25)
Length of Visible Light 10h 42m
Length of Day
9h 43m
Waxing Gibbous, 93% of the Moon is Illuminated
Nov 25
Waxing Gibbous
Nov 28
Full
Dec 6
Last Quarter
Dec 13
New
Dec 20
First Quarter

Hourly Weather History & Observations

Time (EST) Temp. Windchill Dew Point Humidity Pressure Visibility Wind Dir Wind Speed Gust Speed Precip Events Conditions
12:53 AM 30.0 °F 21.7 °F 17.1 °F 59% 30.09 in 10.0 mi WSW 9.2 mph - N/A   Overcast
1:53 AM 30.0 °F 22.4 °F 17.1 °F 59% 30.09 in 10.0 mi WSW 8.1 mph - N/A   Overcast
2:39 AM 28.4 °F 21.2 °F 17.6 °F 64% 30.08 in 10.0 mi West 6.9 mph - N/A   Overcast
2:53 AM 28.9 °F 21.1 °F 18.0 °F 64% 30.10 in 10.0 mi West 8.1 mph - N/A   Overcast
3:53 AM 28.9 °F 19.8 °F 18.0 °F 64% 30.10 in 10.0 mi WSW 10.4 mph - N/A   Overcast
4:21 AM 28.4 °F 20.4 °F 17.6 °F 64% 30.07 in 10.0 mi WSW 8.1 mph - N/A   Overcast
4:53 AM 28.9 °F 20.4 °F 17.1 °F 61% 30.11 in 10.0 mi SW 9.2 mph - N/A   Overcast
5:53 AM 28.0 °F 20.8 °F 18.0 °F 66% 30.09 in 10.0 mi SW 6.9 mph - N/A   Mostly Cloudy
6:53 AM 28.0 °F 20.8 °F 18.0 °F 66% 30.07 in 10.0 mi SSW 6.9 mph - N/A   Overcast
7:53 AM 28.9 °F 21.1 °F 18.0 °F 64% 30.08 in 10.0 mi SW 8.1 mph - N/A   Scattered Clouds
8:53 AM 30.0 °F 20.0 °F 19.0 °F 64% 30.07 in 10.0 mi SSW 12.7 mph 18.4 mph N/A   Clear
9:53 AM 32.0 °F 22.1 °F 19.0 °F 59% 30.07 in 10.0 mi SW 13.8 mph 21.9 mph N/A   Mostly Cloudy
10:53 AM 34.0 °F 25.0 °F 19.9 °F 56% 30.04 in 10.0 mi SSW 12.7 mph - N/A   Mostly Cloudy
11:53 AM 36.0 °F 28.5 °F 21.0 °F 55% 30.01 in 10.0 mi SW 10.4 mph - N/A   Mostly Cloudy
12:53 PM 37.9 °F 31.5 °F 18.0 °F 45% 29.96 in 10.0 mi SW 9.2 mph 18.4 mph N/A   Overcast
1:53 PM 43.0 °F 35.7 °F 18.0 °F 37% 29.92 in 10.0 mi SW 15.0 mph - N/A   Mostly Cloudy
2:53 PM 42.1 °F 34.9 °F 16.0 °F 35% 29.90 in 10.0 mi SW 13.8 mph - N/A   Scattered Clouds
3:53 PM 44.1 °F 37.1 °F 15.1 °F 31% 29.90 in 10.0 mi WSW 15.0 mph 20.7 mph N/A   Clear
4:53 PM 41.0 °F 35.8 °F 15.1 °F 35% 29.92 in 10.0 mi SW 8.1 mph - N/A   Clear
5:53 PM 37.9 °F 34.4 °F 15.1 °F 39% 29.94 in 10.0 mi SW 4.6 mph - N/A   Clear
6:53 PM 39.0 °F - 15.1 °F 38% 29.97 in 10.0 mi Calm Calm - N/A   Clear
7:53 PM 37.9 °F 35.5 °F 16.0 °F 41% 29.98 in 10.0 mi South 3.5 mph - N/A   Clear
8:53 PM 37.9 °F 35.5 °F 16.0 °F 41% 29.99 in 10.0 mi South 3.5 mph - N/A   Clear
9:53 PM 36.0 °F 32.1 °F 16.0 °F 44% 30.01 in 10.0 mi South 4.6 mph - N/A   Clear
10:53 PM 36.0 °F - 18.0 °F 48% 30.01 in 10.0 mi Calm Calm - N/A   Clear
11:53 PM 35.1 °F 31.0 °F 17.1 °F 48% 30.02 in 10.0 mi SSW 4.6 mph - N/A   Clear